Battle Creek, MI

11:50 AM EDT on June 24, 2018 (GMT -0400)
Kellogg

Weather History for KBTL - January, 2015

Change the Weather History Date:

Thursday, January 1, 2015

  Actual Average Record
Temperature  
Mean Temperature 24 °F 24 °F  
Max Temperature 30 °F 32 °F 54 °F (2011)
Min Temperature 18 °F 16 °F 1 °F (2002)
Degree Days  
Heating Degree Days 41 41  
Month to date heating degree days 41 41  
Since 1 July heating degree days 2523 2641  
Cooling Degree Days 0 0  
Month to date cooling degree days 0 0  
Year to date cooling degree days 0 0  
Moisture  
Dew Point 12 °F    
Average Humidity 60    
Maximum Humidity 67    
Minimum Humidity 53    
Precipitation  
Precipitation 0.00 in 0.07 in 0.14 in (2011)
Month to date precipitation 0.00 0.07  
Year to date precipitation 0.00 0.07  
Sea Level Pressure  
Sea Level Pressure 30.01 in    
Wind  
Wind Speed 18 mph (WSW)    
Max Wind Speed 28 mph    
Max Gust Speed 34 mph    
Visibility 10 miles    
Events      
T = Trace of Precipitation, MM = Missing Value Source: NWS Daily Summary

Daily Weather History Graph

Daily Weather History Graph

Search for Another Location

Airport or City:

Astronomy

Jan. 01, 2015 Rise Set
Actual Time 8:10 AM EST 5:19 PM EST
Civil Twilight 7:38 AM EST 5:50 PM EST
Nautical Twilight 7:03 AM EST 6:26 PM EST
Astronomical Twilight 6:28 AM EST 7:00 PM EST
Moon 2:53 PM EST (1/1) 4:35 AM EST (1/1)
Length of Visible Light 10h 12m
Length of Day
9h 09m
Waxing Gibbous, 88% of the Moon is Illuminated
Jan 1
Waxing Gibbous
Jan 4
Full
Jan 13
Last Quarter
Jan 20
New
Jan 26
First Quarter

Hourly Weather History & Observations

Time (EST) Temp. Windchill Dew Point Humidity Pressure Visibility Wind Dir Wind Speed Gust Speed Precip Events Conditions
12:53 AM 19.9 °F 4.3 °F 7.0 °F 57% 30.10 in 10.0 mi WSW 19.6 mph - N/A   Overcast
1:53 AM 19.9 °F 4.8 °F 7.0 °F 57% 30.07 in 10.0 mi SW 18.4 mph - N/A   Overcast
2:53 AM 19.9 °F 6.2 °F 7.0 °F 57% 30.07 in 10.0 mi SW 15.0 mph - N/A   Overcast
3:24 AM 19.0 °F 4.0 °F 7.0 °F 59% 30.02 in 10.0 mi SW 17.3 mph - N/A   Overcast
3:53 AM 19.0 °F 3.6 °F 7.0 °F 59% 30.06 in 10.0 mi SW 18.4 mph - N/A   Overcast
4:53 AM 19.0 °F 3.2 °F 7.0 °F 59% 30.04 in 10.0 mi WSW 19.6 mph - N/A   Overcast
5:53 AM 19.0 °F 5.6 °F 8.1 °F 62% 30.02 in 10.0 mi SW 13.8 mph - N/A   Overcast
6:53 AM 17.6 °F 2.2 °F 8.6 °F 68% 29.96 in 10.0 mi SW 17.3 mph - N/A   Overcast
7:53 AM 18.0 °F 2.2 °F 8.1 °F 65% 30.00 in 10.0 mi SW 18.4 mph 25.3 mph N/A   Overcast
8:53 AM 18.0 °F 1.7 °F 8.1 °F 65% 30.01 in 10.0 mi SW 19.6 mph 26.5 mph N/A   Overcast
9:53 AM 19.0 °F 2.7 °F 9.0 °F 65% 30.02 in 10.0 mi WSW 20.7 mph 27.6 mph N/A   Overcast
10:53 AM 21.0 °F 5.0 °F 10.0 °F 63% 30.00 in 10.0 mi WSW 21.9 mph 28.8 mph N/A   Mostly Cloudy
11:31 AM 24.1 °F 10.6 °F 10.9 °F 57% 29.93 in 10.0 mi WSW 17.3 mph 29.9 mph N/A   Scattered Clouds
11:53 AM 25.0 °F 10.9 °F 10.9 °F 55% 29.97 in 10.0 mi WSW 19.6 mph 32.2 mph N/A   Scattered Clouds
12:12 PM 24.1 °F 8.7 °F 12.0 °F 60% 29.92 in 10.0 mi WSW 23.0 mph 32.2 mph N/A   Mostly Cloudy
12:53 PM 25.0 °F 10.2 °F 12.0 °F 58% 29.96 in 10.0 mi SW 21.9 mph - N/A   Overcast
1:53 PM 27.0 °F 12.8 °F 14.0 °F 58% 29.95 in 10.0 mi WSW 21.9 mph 29.9 mph N/A   Overcast
2:53 PM 27.0 °F 14.7 °F 14.0 °F 58% 29.95 in 10.0 mi West 16.1 mph - N/A   Overcast
3:53 PM 28.0 °F 15.3 °F 15.1 °F 58% 29.96 in 10.0 mi West 18.4 mph 25.3 mph N/A   Overcast
4:10 PM 28.0 °F 17.5 °F 15.1 °F 58% 29.92 in 10.0 mi WSW 12.7 mph - N/A   Overcast
4:53 PM 28.0 °F 15.7 °F 16.0 °F 61% 29.98 in 10.0 mi WSW 17.3 mph - N/A   Overcast
5:53 PM 28.0 °F 15.3 °F 16.0 °F 61% 29.99 in 10.0 mi WSW 18.4 mph 28.8 mph N/A   Overcast
6:53 PM 28.0 °F 15.3 °F 14.0 °F 56% 30.01 in 10.0 mi WSW 18.4 mph 27.6 mph N/A   Mostly Cloudy
7:53 PM 28.0 °F 17.0 °F 14.0 °F 56% 30.05 in 10.0 mi WSW 13.8 mph - N/A   Mostly Cloudy
8:53 PM 28.0 °F 16.5 °F 14.0 °F 56% 30.07 in 10.0 mi WSW 15.0 mph - N/A   Overcast
9:53 PM 28.9 °F 17.7 °F 16.0 °F 58% 30.08 in 10.0 mi WSW 15.0 mph - N/A   Overcast
10:53 PM 28.9 °F 18.2 °F 17.1 °F 61% 30.09 in 10.0 mi WSW 13.8 mph - N/A   Overcast
11:36 PM 28.9 °F 19.2 °F 18.0 °F 64% 30.05 in 10.0 mi SW 11.5 mph - N/A   Overcast
11:53 PM 30.0 °F 21.1 °F 19.0 °F 64% 30.09 in 10.0 mi WSW 10.4 mph - N/A   Overcast